User: anonymous   Login
Location: Nebula Knoll Observatory
(43.6666°N, 71.0000°W)
Time: 15:22:05
(UTC-04:00)
Language:

Cosmos 1782 - Orbit

View from above orbital plane
View from above orbital plane
View from above satellite
View from above satellite

Ground track
Ground track

The orbit data is extracted from the following two-line orbital elements,

1 16986U 86074A   18170.96216241 +.00000158 +00000-0 +86087-5 0  9991
2 16986 082.5084 123.3749 0011593 159.8492 200.3196 15.06883469705053
Epoch (UTC): 19 June 2018 23:05:30
Eccentricity: 0.0011593
inclination: 82.5084°
perigee height: 538 km
apogee height: 554 km
right ascension of ascending node: 123.3749°
argument of perigee: 159.8492°
revolutions per day: 15.06883469
mean anomaly at epoch: 200.3196°
orbit number at epoch: 70505

The dashed part of the orbit path shows where the satellite is in the earth's shadow,  

DLR